Wind_Speed
25 25 25 25 26 28 29 29 30 30 30 32 32 32 31 32 33 32 32 32 32 32 32 32 32 32 32 33 33 34 34 34 34 34 34 34 34 34 34 34 34 34 35 34
25 25 25 26 27 28 29 29 29 30 30 31 31 32 31 31 32 32 32 32 32 32 32 33 33 33 33 33 34 34 35 36 36 35 36 36 37 37 37 36 36 36 36 36
25 25 26 27 27 28 28 29 29 30 31 32 32 31 30 31 31 31 32 32 33 33 32 33 34 35 35 34 35 35 36 36 37 36 37 37 38 38 37 37 37 37 38 37
27 26 27 27 27 28 28 29 30 31 32 32 33 33 29 30 31 31 31 32 32 33 33 33 34 36 36 36 36 36 36 37 37 37 37 38 38 38 38 38 39 39 39 39
28 27 27 28 27 28 29 29 30 31 33 33 33 34 30 30 30 30 31 32 32 33 33 33 34 35 35 36 36 37 37 37 38 38 38 38 39 39 39 39 40 40 39 40
29 29 29 28 29 29 29 30 30 31 33 34 32 35 33 30 30 30 31 32 33 33 33 34 34 35 36 36 36 37 37 38 39 40 40 40 40 40 41 40 41 41 41 42
30 29 29 29 29 29 29 30 31 32 34 35 34 35 34 31 30 30 31 31 32 32 33 34 35 35 35 36 37 37 37 38 38 39 40 41 41 42 42 43 43 42 43 43
32 31 30 30 30 30 29 31 32 35 36 36 36 37 35 32 31 31 32 32 32 32 32 33 34 35 36 36 37 37 38 38 39 39 40 41 41 42 43 44 44 44 44 44
33 33 32 32 31 31 32 33 34 36 38 38 38 38 36 33 33 33 32 33 33 33 33 33 34 36 37 37 37 37 39 39 40 40 40 41 42 42 43 43 44 44 44 45
34 35 33 33 33 33 33 34 34 35 38 39 40 38 37 34 34 34 34 34 34 34 35 35 35 36 37 38 38 38 39 39 40 41 41 41 41 42 43 44 44 45 45 45
35 35 35 35 34 34 34 35 36 37 38 40 41 39 36 36 36 35 35 36 36 37 36 36 37 38 38 39 39 39 39 40 41 41 42 43 43 43 44 45 45 46 46 46
35 37 37 36 36 36 35 35 36 37 38 39 41 40 37 37 36 36 36 36 37 38 38 38 39 39 39 40 40 40 40 41 42 43 44 44 44 45 45 45 46 47 47 47
35 37 38 38 38 38 38 37 37 38 39 40 40 40 37 37 36 36 36 37 38 39 39 40 41 41 40 40 41 41 41 42 43 44 45 46 46 46 46 46 47 48 48 49
35 37 37 38 38 38 38 38 38 39 41 41 40 39 37 36 36 36 37 38 39 40 40 40 41 42 42 42 42 42 43 44 44 45 46 46 47 48 48 47 48 48 49 49
36 37 37 37 38 38 38 38 39 40 41 41 40 39 37 37 37 38 39 39 40 41 41 41 42 42 43 44 43 43 44 45 45 46 47 47 48 48 49 49 49 49 50 50
36 38 38 37 37 38 38 38 39 39 40 40 40 40 37 38 38 38 39 39 40 41 41 42 42 43 44 44 45 45 45 46 46 47 47 48 48 49 50 50 51 51 51 51
37 38 39 39 38 38 38 36 37 38 38 39 39 37 36 37 37 38 38 39 40 40 40 41 42 43 43 44 44 44 45 46 47 47 48 48 49 50 51 52 53 53 53 53
38 39 40 40 39 40 37 35 36 35 35 36 37 36 35 36 37 38 38 39 39 39 40 40 41 41 42 42 43 43 44 45 46 47 48 49 49 50 50 51 52 53 54 54
38 39 39 40 40 40 37 36 36 36 35 34 34 34 35 36 37 37 38 38 39 39 40 41 41 41 41 42 42 43 44 45 46 46 47 47 48 49 49 50 50 52 52 53
38 38 39 40 41 40 37 36 35 37 37 35 35 35 35 36 38 37 37 38 39 39 40 40 41 41 41 42 43 43 44 45 46 46 47 47 47 48 48 49 49 50 51 52
37 38 39 40 41 40 38 37 37 38 36 36 37 37 38 38 38 38 39 39 39 40 40 41 41 42 42 42 42 43 44 44 45 46 46 47 47 48 48 48 48 49 49 50
37 38 38 39 40 38 37 38 38 38 38 37 38 38 39 39 39 39 40 40 40 40 40 40 41 41 41 42 42 42 43 44 44 44 45 45 46 47 47 47 48 48 48 49
38 38 39 39 39 38 38 38 38 38 38 38 38 38 39 39 40 40 40 40 40 40 40 41 41 41 41 42 42 42 42 43 43 42 42 42 43 44 45 46 46 47 47 47
37 37 38 39 38 38 38 38 38 38 38 38 37 38 38 39 39 39 39 39 40 40 40 41 41 41 42 42 42 42 42 42 41 41 41 41 42 43 44 44 45 45 45 45
36 37 37 37 36 37 36 36 37 37 37 38 38 38 39 39 39 39 39 40 39 40 41 41 42 42 42 42 41 41 41 41 41 41 41 42 42 42 43 43 44 44 44 44
37 37 37 37 36 36 36 36 38 38 38 39 39 40 40 41 40 40 40 40 40 41 41 41 41 41 41 41 41 41 40 40 40 40 40 40 40 40 41 41 42 42 43 43
Wind_Direction
276 275 273 274 272 268 267 268 268 267 265 263 261 258 257 257 257 257 258 258 258 257 257 256 256 257 258 259 258 257 256 256 256 255 254 255 255 254 253 254 253 253 255 255
276 277 276 272 270 270 268 268 268 268 267 265 262 259 256 257 258 258 258 258 258 258 257 257 257 257 258 258 257 256 257 257 256 255 255 256 255 254 254 254 254 255 256 256
277 277 275 273 272 271 271 269 268 268 267 267 264 261 259 258 258 258 259 259 259 258 259 259 259 258 258 258 257 256 256 256 256 256 256 256 255 254 253 254 255 255 256 257
277 278 276 274 273 273 273 271 269 269 269 266 265 264 260 259 259 259 260 261 259 259 260 260 260 259 260 260 258 256 255 256 255 255 255 255 255 255 254 253 255 255 254 256
278 277 277 275 274 274 273 273 272 270 270 268 265 267 262 260 259 261 263 263 262 261 261 260 260 260 260 261 259 257 256 256 255 254 254 255 255 255 254 254 254 255 255 255
276 277 278 278 275 274 274 273 272 270 270 268 268 268 265 263 263 264 265 266 265 263 262 261 261 261 261 261 261 259 258 257 256 255 254 255 254 255 254 254 255 255 256 257
276 277 277 276 275 273 273 272 272 272 271 270 269 268 267 264 265 267 268 268 267 264 263 263 263 263 263 263 263 262 260 258 257 256 255 255 254 254 254 254 255 256 256 257
276 275 276 275 274 273 272 271 271 272 272 271 269 268 267 266 267 269 269 268 267 266 265 265 266 266 266 265 266 264 262 260 259 258 256 256 255 254 254 255 255 255 256 256
277 276 275 275 274 273 272 272 272 272 272 272 271 270 268 268 268 269 268 267 267 267 267 267 268 268 268 268 268 267 264 262 260 259 258 258 256 255 254 255 255 255 255 255
275 275 274 274 274 273 272 272 271 271 272 273 273 272 271 270 269 269 267 267 268 269 269 270 270 270 269 269 268 268 266 263 262 260 258 258 258 257 255 255 256 256 256 256
274 275 275 274 274 274 272 270 271 271 271 273 274 273 274 273 271 270 267 267 267 268 270 271 271 272 271 270 269 269 268 265 263 262 261 261 260 260 258 257 256 257 257 258
274 274 275 275 274 273 271 269 269 269 270 272 274 274 276 275 273 270 269 268 269 269 269 270 270 271 271 271 269 268 267 266 265 264 263 263 262 261 260 259 259 258 259 260
275 276 276 275 274 273 271 269 269 269 270 270 273 274 276 274 272 271 269 269 270 270 270 270 269 270 270 270 269 268 267 266 266 265 265 263 263 262 261 261 261 261 261 261
276 276 276 277 278 276 274 272 270 269 269 270 272 274 274 273 272 270 269 269 270 271 271 271 270 269 269 270 270 269 268 267 266 265 265 264 263 262 262 262 262 262 262 262
275 276 277 276 275 274 273 272 271 269 269 270 271 272 272 271 271 270 270 270 270 271 271 271 270 269 270 270 270 269 268 268 267 266 266 265 264 263 262 262 262 262 263 263
275 276 277 276 276 275 273 272 271 270 269 269 270 270 270 269 269 269 270 271 271 271 272 272 271 271 270 270 270 270 269 269 268 267 266 265 264 263 263 262 263 263 263 264
275 276 277 277 276 274 272 273 272 271 269 269 271 272 270 268 268 269 270 270 271 272 273 274 274 273 272 271 271 270 269 269 268 267 266 265 265 265 264 264 263 263 263 264
275 276 276 277 276 272 275 274 273 272 270 269 271 272 271 270 268 268 269 270 272 273 274 273 274 274 273 272 271 271 270 270 269 268 267 266 266 266 266 265 264 263 263 263
274 275 275 276 276 275 272 272 273 273 271 271 272 272 271 270 269 269 271 271 273 274 274 274 273 273 273 273 272 272 271 271 270 269 269 268 268 267 266 265 264 263 263 263
274 273 272 274 275 275 274 273 273 273 272 272 273 273 272 272 271 271 273 273 273 274 274 274 274 274 275 275 275 274 273 272 271 270 270 270 269 268 267 266 265 265 264 264
273 272 272 274 275 275 274 273 272 272 274 274 273 273 272 273 274 274 274 274 274 275 274 274 274 275 275 276 276 275 273 273 272 272 271 270 269 269 268 267 266 266 266 265
273 274 274 273 274 275 275 274 273 273 274 273 273 272 273 274 274 275 275 275 275 276 276 276 276 276 276 277 277 276 275 274 274 273 272 271 269 268 268 267 266 266 267 267
274 275 275 273 274 275 274 274 273 273 273 273 272 272 272 273 274 275 275 275 275 276 276 277 277 278 278 278 278 277 276 275 274 274 272 270 269 268 268 268 267 267 268 268
275 276 275 275 274 274 274 273 273 273 272 271 272 272 272 273 274 275 275 275 275 275 276 277 277 278 278 279 278 277 276 276 275 273 272 271 270 269 269 268 268 268 268 268
277 276 276 275 274 273 273 272 272 273 272 271 272 272 272 273 274 274 274 275 276 276 277 277 277 278 278 278 278 277 276 276 276 274 273 272 271 271 270 269 269 269 269 269
275 275 274 273 274 273 272 272 273 273 272 272 273 273 273 273 273 274 275 276 277 277 278 278 278 278 278 278 277 276 276 275 275 275 275 274 273 272 271 270 270 269 269 268
Height
5692 5692 5691 5691 5690 5690 5690 5690 5691 5691 5691 5691 5692 5693 5694 5694 5695 5696 5697 5698 5699 5700 5701 5702 5703 5704 5705 5706 5706 5707 5708 5709 5710 5712 5713 5714 5716 5717 5719 5720 5721 5722 5723 5724
5685 5685 5685 5683 5682 5682 5682 5682 5683 5683 5682 5682 5683 5685 5686 5686 5687 5688 5689 5689 5690 5691 5692 5693 5694 5695 5696 5697 5698 5698 5699 5701 5702 5703 5704 5706 5707 5708 5710 5711 5712 5714 5715 5716
5677 5678 5676 5675 5675 5674 5674 5674 5675 5675 5674 5674 5674 5676 5678 5678 5679 5680 5680 5681 5682 5683 5684 5684 5685 5686 5687 5688 5688 5689 5690 5692 5693 5694 5696 5697 5698 5699 5701 5702 5704 5705 5706 5707
5670 5670 5669 5668 5667 5667 5667 5667 5666 5666 5665 5666 5666 5666 5671 5670 5670 5671 5672 5673 5673 5674 5675 5676 5676 5677 5678 5678 5679 5680 5681 5682 5683 5685 5686 5688 5689 5690 5692 5693 5694 5695 5697 5698
5663 5662 5661 5661 5661 5659 5659 5659 5658 5658 5657 5657 5658 5657 5661 5661 5662 5663 5664 5664 5665 5666 5666 5667 5667 5668 5668 5669 5670 5670 5671 5673 5674 5675 5676 5678 5679 5681 5682 5683 5685 5686 5687 5688
5655 5654 5654 5654 5653 5652 5651 5651 5650 5649 5648 5648 5650 5649 5651 5653 5654 5655 5656 5656 5656 5657 5657 5657 5658 5658 5659 5659 5660 5660 5661 5662 5664 5665 5666 5667 5669 5670 5672 5673 5675 5676 5677 5678
5646 5646 5645 5645 5644 5644 5644 5643 5641 5639 5638 5640 5641 5640 5642 5645 5646 5647 5647 5647 5647 5647 5648 5648 5648 5649 5649 5649 5650 5651 5651 5652 5653 5654 5655 5656 5658 5660 5661 5663 5664 5665 5667 5668
5636 5637 5637 5637 5636 5636 5635 5634 5634 5632 5630 5631 5631 5631 5635 5637 5638 5637 5638 5638 5637 5638 5638 5639 5639 5639 5639 5640 5640 5640 5641 5641 5642 5644 5645 5645 5647 5648 5650 5652 5653 5654 5656 5657
5627 5628 5629 5628 5628 5627 5626 5625 5625 5623 5621 5621 5621 5622 5626 5628 5628 5628 5629 5628 5628 5629 5629 5629 5629 5629 5629 5630 5630 5630 5630 5631 5631 5633 5634 5635 5636 5637 5639 5640 5642 5643 5644 5645
5617 5618 5619 5618 5618 5618 5617 5617 5615 5613 5611 5610 5611 5613 5616 5618 5619 5619 5619 5619 5619 5619 5619 5619 5619 5619 5619 5619 5619 5619 5620 5620 5621 5621 5623 5624 5625 5626 5627 5629 5630 5631 5632 5634
5608 5608 5609 5608 5608 5608 5608 5607 5605 5604 5602 5602 5600 5606 5607 5608 5608 5609 5609 5609 5609 5609 5609 5609 5608 5608 5608 5608 5608 5608 5608 5609 5610 5610 5611 5612 5613 5614 5616 5617 5618 5619 5620 5621
5598 5597 5597 5599 5599 5597 5597 5596 5596 5595 5593 5592 5591 5597 5598 5598 5597 5597 5598 5598 5598 5598 5598 5598 5597 5597 5597 5597 5597 5597 5597 5597 5598 5599 5600 5600 5601 5602 5603 5605 5606 5607 5608 5609
5588 5587 5586 5586 5588 5587 5586 5586 5585 5584 5583 5582 5581 5587 5588 5587 5586 5586 5586 5586 5586 5586 5586 5586 5586 5586 5586 5585 5585 5585 5585 5585 5586 5586 5587 5588 5589 5590 5591 5592 5593 5594 5595 5596
5577 5576 5577 5577 5576 5575 5575 5576 5575 5573 5571 5571 5573 5576 5578 5576 5575 5575 5575 5575 5575 5575 5575 5575 5574 5574 5574 5573 5573 5573 5573 5573 5573 5574 5574 5575 5576 5577 5578 5579 5580 5581 5581 5582
5566 5566 5566 5566 5565 5564 5564 5565 5564 5562 5561 5561 5563 5564 5566 5565 5564 5564 5564 5564 5563 5563 5563 5563 5562 5562 5561 5561 5560 5560 5560 5560 5560 5560 5561 5561 5562 5563 5564 5565 5566 5567 5568 5568
5555 5555 5555 5556 5555 5552 5552 5553 5552 5551 5551 5550 5551 5553 5555 5553 5552 5552 5552 5551 5551 5551 5551 5550 5550 5549 5548 5548 5547 5547 5546 5546 5546 5546 5547 5547 5548 5548 5549 5550 5551 5552 5553 5554
5545 5544 5543 5543 5543 5540 5541 5544 5542 5541 5540 5540 5539 5543 5542 5541 5541 5541 5540 5540 5539 5539 5538 5538 5537 5536 5536 5535 5534 5533 5533 5532 5532 5532 5532 5532 5533 5533 5534 5535 5536 5537 5537 5538
5535 5533 5531 5531 5531 5528 5535 5533 5532 5530 5530 5530 5529 5530 5530 5530 5530 5529 5528 5528 5528 5527 5526 5525 5525 5524 5523 5522 5521 5520 5520 5519 5518 5518 5517 5517 5518 5518 5518 5519 5520 5521 5521 5522
5524 5522 5520 5519 5517 5517 5523 5523 5521 5519 5519 5519 5518 5518 5519 5518 5517 5518 5517 5517 5516 5515 5514 5513 5512 5511 5510 5509 5508 5507 5506 5505 5504 5503 5503 5503 5503 5503 5503 5504 5504 5505 5505 5506
5513 5511 5511 5508 5505 5506 5513 5512 5510 5508 5508 5510 5508 5507 5507 5506 5506 5508 5506 5505 5504 5503 5502 5501 5499 5498 5497 5496 5495 5493 5492 5491 5490 5489 5489 5488 5488 5488 5488 5488 5489 5489 5490 5490
5501 5500 5499 5497 5494 5495 5500 5500 5498 5498 5500 5499 5497 5496 5496 5495 5496 5496 5494 5493 5491 5490 5489 5488 5487 5486 5484 5483 5481 5480 5478 5477 5476 5475 5474 5473 5473 5473 5473 5473 5473 5474 5474 5474
5489 5488 5487 5486 5484 5488 5488 5487 5487 5487 5487 5486 5486 5485 5484 5484 5483 5483 5482 5480 5479 5478 5477 5476 5474 5473 5471 5469 5468 5466 5464 5463 5462 5461 5459 5459 5458 5458 5458 5458 5458 5458 5458 5459
5478 5479 5477 5477 5478 5478 5476 5476 5475 5475 5475 5474 5473 5473 5472 5472 5471 5470 5470 5468 5467 5466 5465 5463 5462 5460 5458 5456 5454 5453 5451 5449 5448 5447 5445 5444 5444 5443 5443 5443 5443 5443 5443 5443
5467 5466 5465 5464 5465 5465 5464 5463 5463 5463 5462 5462 5462 5461 5460 5460 5459 5458 5458 5456 5455 5454 5452 5450 5449 5447 5445 5443 5441 5439 5438 5436 5435 5433 5432 5431 5430 5430 5429 5428 5428 5428 5428 5429
5456 5454 5453 5452 5453 5453 5452 5452 5452 5451 5450 5450 5450 5449 5448 5447 5447 5446 5445 5444 5443 5441 5439 5438 5436 5435 5432 5430 5428 5426 5424 5423 5422 5420 5419 5418 5417 5416 5415 5415 5414 5414 5414 5414
5445 5443 5442 5441 5442 5441 5441 5441 5440 5439 5439 5438 5438 5437 5436 5435 5435 5434 5433 5432 5430 5428 5427 5425 5423 5421 5419 5417 5415 5413 5412 5410 5409 5407 5406 5405 5404 5403 5402 5402 5402 5400 5401 5400